Time,TemperatureF,DewpointF,PressureIn,WindDirection,WindDirectionDegrees,WindSpeedMPH,WindSpeedGustMPH,Humidity,HourlyPrecipIn,Conditions,Clouds,dailyrainin,SoftwareType,DateUTC
2013-02-01 00:03:00,19.0,8.0,29.12,South,180,9.0,38.0,61,-99.99,,,0.05,,2013-02-01 05:03:00,
2013-02-01 01:42:00,12.0,3.0,29.20,SSW,202,17.0,32.0,65,-99.99,,,0.05,,2013-02-01 06:42:00,
2013-02-01 01:52:00,12.0,3.0,29.20,SSW,202,17.0,32.0,65,-99.99,,,0.05,,2013-02-01 06:52:00,
2013-02-01 02:02:00,12.0,3.0,29.20,SSW,202,17.0,32.0,65,-99.99,,,0.05,,2013-02-01 07:02:00,
2013-02-01 02:42:00,11.0,3.0,29.22,South,180,10.0,29.0,71,-99.99,,,0.05,,2013-02-01 07:42:00,
2013-02-01 02:52:00,11.0,3.0,29.22,South,180,10.0,29.0,71,-99.99,,,0.05,,2013-02-01 07:52:00,
2013-02-01 03:01:00,11.0,3.0,29.22,South,180,10.0,29.0,71,-99.99,,,0.05,,2013-02-01 08:01:00,
2013-02-01 03:42:00,10.0,2.0,29.24,South,180,14.0,33.0,69,-99.99,,,0.05,,2013-02-01 08:42:00,
2013-02-01 03:52:00,10.0,2.0,29.24,South,180,14.0,33.0,69,-99.99,,,0.05,,2013-02-01 08:52:00,
2013-02-01 04:02:00,10.0,2.0,29.24,South,180,14.0,33.0,69,-99.99,,,0.05,,2013-02-01 09:02:00,
2013-02-01 04:42:00,9.0,2.0,29.26,South,180,8.0,31.0,73,-99.99,,,0.05,,2013-02-01 09:42:00,
2013-02-01 04:52:00,9.0,2.0,29.26,South,180,8.0,31.0,73,-99.99,,,0.05,,2013-02-01 09:52:00,
2013-02-01 05:01:00,9.0,2.0,29.26,South,180,8.0,31.0,73,-99.99,,,0.05,,2013-02-01 10:01:00,
2013-02-01 05:43:00,8.0,0.0,29.30,SW,225,12.0,31.0,70,-99.99,,,0.04,,2013-02-01 10:43:00,
2013-02-01 05:53:00,8.0,0.0,29.30,SW,225,12.0,31.0,70,-99.99,,,0.04,,2013-02-01 10:53:00,
2013-02-01 06:02:00,8.0,0.0,29.30,SW,225,12.0,31.0,70,-99.99,,,0.04,,2013-02-01 11:02:00,
2013-02-01 06:32:00,7.0,0.0,29.33,South,180,10.0,31.0,74,-99.99,,,0.03,,2013-02-01 11:32:00,
2013-02-01 06:42:00,7.0,0.0,29.33,South,180,10.0,31.0,74,-99.99,,,0.03,,2013-02-01 11:42:00,
2013-02-01 06:53:00,7.0,0.0,29.33,South,180,10.0,31.0,74,-99.99,,,0.03,,2013-02-01 11:53:00,
2013-02-01 07:03:00,7.0,0.0,29.33,South,180,10.0,31.0,74,-99.99,,,0.03,,2013-02-01 12:03:00,
2013-02-01 07:32:00,6.0,0.0,29.37,SSW,202,9.0,23.0,75,-99.99,,,0.02,,2013-02-01 12:32:00,
2013-02-01 07:42:00,6.0,0.0,29.37,SSW,202,9.0,23.0,75,-99.99,,,0.02,,2013-02-01 12:42:00,
2013-02-01 07:52:00,6.0,0.0,29.37,SSW,202,9.0,23.0,75,-99.99,,,0.02,,2013-02-01 12:52:00,
2013-02-01 08:02:00,6.0,0.0,29.37,SSW,202,9.0,23.0,75,-99.99,,,0.02,,2013-02-01 13:02:00,
2013-02-01 08:43:00,7.0,0.0,29.40,South,180,8.0,20.0,73,-99.99,,,0.02,,2013-02-01 13:43:00,
2013-02-01 08:53:00,7.0,0.0,29.40,South,180,8.0,20.0,73,-99.99,,,0.02,,2013-02-01 13:53:00,
2013-02-01 09:03:00,7.0,0.0,29.40,South,180,8.0,20.0,73,-99.99,,,0.02,,2013-02-01 14:03:00,
2013-02-01 09:42:00,8.0,0.0,29.45,South,180,10.0,24.0,70,-99.99,,,0.01,,2013-02-01 14:42:00,
2013-02-01 09:53:00,8.0,0.0,29.45,South,180,10.0,24.0,70,-99.99,,,0.01,,2013-02-01 14:53:00,
2013-02-01 10:03:00,8.0,0.0,29.45,South,180,10.0,24.0,70,-99.99,,,0.01,,2013-02-01 15:03:00,
2013-02-01 10:42:00,8.0,1.0,29.48,SSW,202,10.0,34.0,71,-99.99,,,0.01,,2013-02-01 15:42:00,
2013-02-01 10:52:00,8.0,1.0,29.48,SSW,202,10.0,34.0,71,-99.99,,,0.01,,2013-02-01 15:52:00,
2013-02-01 11:03:00,8.0,1.0,29.48,SSW,202,10.0,34.0,71,-99.99,,,0.01,,2013-02-01 16:03:00,
2013-02-01 11:43:00,10.0,1.0,29.51,SSW,202,11.0,28.0,66,-99.99,,,0.01,,2013-02-01 16:43:00,
2013-02-01 11:53:00,10.0,1.0,29.51,SSW,202,11.0,28.0,66,-99.99,,,0.01,,2013-02-01 16:53:00,
2013-02-01 12:03:00,10.0,1.0,29.51,SSW,202,11.0,28.0,66,-99.99,,,0.01,,2013-02-01 17:03:00,
2013-02-01 12:42:00,12.0,3.0,29.53,SSW,202,13.0,25.0,67,-99.99,,,0.01,,2013-02-01 17:42:00,
2013-02-01 12:53:00,12.0,3.0,29.53,SSW,202,13.0,25.0,67,-99.99,,,0.01,,2013-02-01 17:53:00,
2013-02-01 13:03:00,12.0,3.0,29.53,SSW,202,13.0,25.0,67,-99.99,,,0.01,,2013-02-01 18:03:00,
2013-02-01 13:33:00,11.0,3.0,29.55,SW,225,14.0,26.0,68,-99.99,,,0.01,,2013-02-01 18:33:00,
2013-02-01 13:42:00,11.0,3.0,29.55,SW,225,14.0,26.0,68,-99.99,,,0.01,,2013-02-01 18:42:00,
2013-02-01 13:53:00,11.0,3.0,29.55,SW,225,14.0,26.0,68,-99.99,,,0.01,,2013-02-01 18:53:00,
2013-02-01 14:03:00,11.0,3.0,29.55,SW,225,14.0,26.0,68,-99.99,,,0.01,,2013-02-01 19:03:00,
2013-02-01 14:42:00,11.0,2.0,29.59,South,180,9.0,26.0,65,-99.99,,,-99.99,,2013-02-01 19:42:00,
2013-02-01 14:52:00,11.0,2.0,29.59,South,180,9.0,26.0,65,-99.99,,,-99.99,,2013-02-01 19:52:00,
2013-02-01 15:02:00,11.0,2.0,29.59,South,180,9.0,26.0,65,-99.99,,,-99.99,,2013-02-01 20:02:00,
2013-02-01 15:42:00,11.0,0.0,29.63,South,180,12.0,29.0,61,-99.99,,,-99.99,,2013-02-01 20:42:00,
2013-02-01 15:52:00,11.0,0.0,29.63,South,180,12.0,29.0,61,-99.99,,,-99.99,,2013-02-01 20:52:00,
2013-02-01 16:02:00,11.0,0.0,29.63,South,180,12.0,29.0,61,-99.99,,,-99.99,,2013-02-01 21:02:00,
2013-02-01 16:32:00,9.0,0.0,29.66,SSW,202,10.0,21.0,67,-99.99,,,0.00,,2013-02-01 21:32:00,
2013-02-01 16:42:00,9.0,0.0,29.66,SSW,202,10.0,21.0,67,-99.99,,,0.00,,2013-02-01 21:42:00,
2013-02-01 16:53:00,9.0,0.0,29.66,SSW,202,10.0,21.0,67,-99.99,,,0.00,,2013-02-01 21:53:00,
2013-02-01 17:03:00,9.0,0.0,29.66,SSW,202,10.0,21.0,67,-99.99,,,0.00,,2013-02-01 22:03:00,
2013-02-01 17:42:00,8.0,1.0,29.68,SSW,202,8.0,22.0,71,-99.99,,,0.00,,2013-02-01 22:42:00,
2013-02-01 17:52:00,8.0,1.0,29.68,SSW,202,8.0,22.0,71,-99.99,,,0.00,,2013-02-01 22:52:00,
2013-02-01 18:02:00,8.0,1.0,29.68,SSW,202,8.0,22.0,71,-99.99,,,0.00,,2013-02-01 23:02:00,
2013-02-01 18:42:00,7.0,1.0,29.71,SW,225,4.0,13.0,77,-99.99,,,0.00,,2013-02-01 23:42:00,
2013-02-01 18:52:00,7.0,1.0,29.71,SW,225,4.0,13.0,77,-99.99,,,0.00,,2013-02-01 23:52:00,
2013-02-01 19:02:00,7.0,1.0,29.71,SW,225,4.0,13.0,77,-99.99,,,0.00,,2013-02-02 00:02:00,
2013-02-01 19:42:00,6.0,2.0,29.73,WSW,247,7.0,12.0,82,-99.99,,,0.00,,2013-02-02 00:42:00,
2013-02-01 19:52:00,6.0,2.0,29.73,WSW,247,7.0,12.0,82,-99.99,,,0.00,,2013-02-02 00:52:00,
2013-02-01 20:03:00,6.0,2.0,29.73,WSW,247,7.0,12.0,82,-99.99,,,0.00,,2013-02-02 01:03:00,
2013-02-01 20:42:00,5.0,3.0,29.77,WSW,247,8.0,18.0,90,-99.99,,,0.00,,2013-02-02 01:42:00,
2013-02-01 20:52:00,5.0,3.0,29.77,WSW,247,8.0,18.0,90,-99.99,,,0.00,,2013-02-02 01:52:00,
2013-02-01 21:01:00,5.0,3.0,29.77,WSW,247,8.0,18.0,90,-99.99,,,0.00,,2013-02-02 02:01:00,
2013-02-01 21:42:00,3.0,-1.0,29.79,WSW,247,12.0,25.0,83,-99.99,,,0.00,,2013-02-02 02:42:00,
2013-02-01 21:52:00,3.0,-1.0,29.79,WSW,247,12.0,25.0,83,-99.99,,,0.00,,2013-02-02 02:52:00,
2013-02-01 22:02:00,3.0,-1.0,29.79,WSW,247,12.0,25.0,83,-99.99,,,0.00,,2013-02-02 03:02:00,
2013-02-01 22:42:00,2.0,-2.0,29.83,SSW,202,8.0,25.0,84,-99.99,,,0.00,,2013-02-02 03:42:00,
2013-02-01 22:52:00,2.0,-2.0,29.83,SSW,202,8.0,25.0,84,-99.99,,,0.00,,2013-02-02 03:52:00,
2013-02-01 23:02:00,2.0,-2.0,29.83,SSW,202,8.0,25.0,84,-99.99,,,0.00,,2013-02-02 04:02:00,
2013-02-01 23:33:00,1.0,-3.0,29.86,South,180,3.0,13.0,81,-99.99,,,0.00,,2013-02-02 04:33:00,
2013-02-01 23:42:00,1.0,-3.0,29.86,South,180,3.0,13.0,81,-99.99,,,0.00,,2013-02-02 04:42:00,
2013-02-01 23:52:00,1.0,-3.0,29.86,South,180,3.0,13.0,81,-99.99,,,0.00,,2013-02-02 04:52:00,